Regional Weather Roundup
Issued by NWS

Home | Current Version | Previous Version | Text Only | Print | Product List | Glossary Off
Versions: 1 2 3 4 5 6 7 8 9 10 11 12 13 14 15 16 17 18 19 20 21 22 23 24 25 26 27 28 29 30 31 32 33 34 35 36 37 38 39 40 41 42 43 44 45 46 47 48 49 50

000
ASUS43 KDMX 021307
RWRIA

WEATHER ROUNDUP FOR IOWA
NATIONAL WEATHER SERVICE DES MOINES IA
800 AM CDT THU JUL 02 2015

NOTE: "FAIR" INDICATES FEW OR NO CLOUDS BELOW 12,000 FEET WITH NO
SIGNIFICANT WEATHER AND/OR OBSTRUCTIONS TO VISIBILITY.

* - THESE STATIONS ARE NOT NWS STATIONS...THUS NOT UNDER NWS
QUALITY CONTROL.  THEY ALSO DO NOT REPORT WEATHER SUCH
AS PRECIPITATION OR FOG.

IAZ001>003-012>014-020>022-031>034-043>046-021400-
   NORTHWEST IOWA

CITY           SKY/WX    TMP DP  RH WIND       PRES   REMARKS
CARROLL *      SUNNY     57  55  94 CALM      30.00S
CHEROKEE *     CLOUDY    57  55  94 CALM      30.00F
DENISON *      SUNNY     59  55  88 E8        29.97F
LE MARS *      SUNNY     59  55  88 CALM      30.00F
ORANGE CITY *  SUNNY     55  52  88 E6        29.99F
SHELDON *      MOSUNNY   57  57 100 E7        30.00F
SIOUX CITY     CLOUDY    61  55  81 E8        29.98F
SPENCER        CLOUDY    59  53  80 E7        30.03R
STORM LAKE *   SUNNY     57  54  88 E7        30.01F
$$

IAZ055>058-069>071-079>083-090>094-021400-
   SOUTHWEST IOWA

CITY           SKY/WX    TMP DP  RH WIND       PRES   REMARKS
ATLANTIC *     MOSUNNY   61  59  94 NE7       29.97F
AUDUBON *      SUNNY     57  55  94 E3        30.00S
CLARINDA *     CLOUDY    66  63  88 E7        29.98R
COUNCIL BLFS * CLOUDY    63  59  88 E8        29.96S
CRESTON *      MOSUNNY   61  57  88 E13       29.98R
HARLAN  *      MOSUNNY   59  59 100 NE7       30.00F
LAMONI         CLOUDY    64  59  83 NE5       29.97R
RED OAK *      CLOUDY    64  61  88 E9        29.96F
SHENANDOAH *   CLOUDY    66  63  88 E9        29.95F
$$

IAZ047>049-059>061-072>074-084-021400-
   CENTRAL IOWA

CITY           SKY/WX    TMP DP  RH WIND       PRES   REMARKS
AMES           PTSUNNY   59  55  87 E3        30.01R
ANKENY *       PTSUNNY   59  57  94 CALM      30.00R
CHARITON *     CLOUDY    61  59  94 E9        29.98R
DES MOINES     CLOUDY    61  54  77 E7        29.99R
GRINNELL*      PTSUNNY   59  55  88 E9        30.01R
KNOXVILLE *    SUNNY     61  55  82 E10       29.97R
MARSHALLTOWN   CLOUDY    58  55  90 E10       30.01R
PELLA *        MOSUNNY   61  59  94 E6        29.99R
PERRY *          N/A     59  55  88 E3        30.01R
$$

IAZ004>006-015-016-023>025-035-036-021400-
   NORTH CENTRAL IOWA

CITY           SKY/WX    TMP DP  RH WIND       PRES   REMARKS
ALGONA *       SUNNY     57  54  88 E3        30.04R
CLARION *      SUNNY     57  54  88 E5        30.02R
ESTHERVILLE    PTSUNNY   55  52  89 E3        30.03R
FORT DODGE *   CLOUDY    55  52  88 NE6       30.02R
MASON CITY     MOSUNNY   58  54  86 E5        30.04S
FOREST CITY *  SUNNY     57  52  82 E3        30.03S
IOWA FALLS *     N/A     57  54  88 E7        30.03R
$$

IAZ007>011-017>019-026>030-037>042-050>054-066-021400-
   NORTHEAST IOWA

CITY           SKY/WX    TMP DP  RH WIND       PRES   REMARKS
CEDAR RAPIDS   MOSUNNY   58  53  84 E9        30.00S
CHARLES CITY * SUNNY     59  55  88 E7        30.04S
CLINTON *      SUNNY     57  48  72 E9        30.04R
DECORAH *        N/A    N/A N/A N/A MISG        N/A
DUBUQUE        SUNNY     55  52  89 NE8       30.02S
MONTICELLO *   SUNNY     57 N/A N/A NE5       30.02S
OELWEIN *      SUNNY     57  55  94 E7        30.03
WATERLOO       PTSUNNY   59  54  83 E6        30.02R
$$

IAZ064-065-067-068-078-021400-
   EAST CENTRAL IOWA

CITY           SKY/WX    TMP DP  RH WIND       PRES   REMARKS
DAVENPORT      SUNNY     58  49  72 E13       30.01R
IOWA CITY      MOSUNNY   60  52  74 E6        30.01R
MT. PLEASANT * SUNNY     63  54  72 NE10      29.98R
MUSCATINE *    SUNNY     61  54  77 NE10      30.00R
QUAD CITIES    SUNNY     59  50  72 E14       30.00R
$$

IAZ062-063-075>077-085>089-095>099-021400-
   SOUTHEAST IOWA

CITY           SKY/WX    TMP DP  RH WIND       PRES   REMARKS
BURLINGTON     SUNNY     60  55  83 NE8       29.97R
FAIRFIELD *    SUNNY     59  54  82 NE9       29.99R
FORT MADISON * SUNNY     61  55  82 NE9       29.97R
KEOKUK *       SUNNY     63  55  77 E8G15     29.94S
OSKALOOSA *      N/A     59  57  94 E9        29.99R
CENTERVILLE *  MOSUNNY   63  59  88 NE10      29.98R
OTTUMWA        SUNNY     60  57  89 E12       29.97R
WASHINGTON *   SUNNY     61  55  82 E9G15     30.00R
$$

ABBREVIATIONS USED IN REMARKS
   TC - TEMPERATURES IN CELSIUS
  WCI - WIND CHILL INDEX
   HX - HEAT INDEX
  VSB - VISIBILITY
$$



USA.gov is the U.S. government's official web portal to all federal, state and local government web resources and services.